Regional Weather Roundup
Issued by NWS Boston, MA

Home | Current Version | Previous Version | Text Only | Print | Product List | Glossary On
Versions: 1 2 3 4 5 6 7 8 9 10 11 12 13 14 15 16 17 18 19 20 21 22 23 24 25 26 27 28 29 30 31 32 33 34 35 36 37 38 39 40 41 42 43 44 45 46 47 48 49
000
ASUS41 KBOX 050810
RWRBOX

REGIONAL WEATHER ROUNDUP
NATIONAL WEATHER SERVICE TAUNTON MA
400 AM EDT SAT SEP 05 2015

NOTE:  "FAIR" INDICATES FEW OR NO CLOUDS BELOW 12,000 FEET WITH NO
SIGNIFICANT WEATHER AND/OR OBSTRUCTIONS TO VISIBILITY.  THE FOLLOWING
OBSERVATION LOCATIONS DO NOT REPORT PRESENT WEATHER...PROVINCETOWN...
SMITHFIELD...BLOCK ISLAND...KEENE...AND OXFORD.

MAZALL-050900-
EASTERN MASSACHUSETTS

CITY           SKY/WX    TMP DP  RH WIND       PRES   REMARKS
BOSTON         CLEAR     59  55  87 N3        30.24F
BEVERLY        CLEAR     50  47  89 CALM      30.24F
LAWRENCE       PTCLDY    54  51  90 CALM      30.27S
BEDFORD        CLEAR     48  46  93 CALM      30.24S
BLUE HILL        N/A     56  55  97 N9        30.23F
NORWOOD        FOG       46  45  96 CALM      30.24F VSB 1/2
MARSHFIELD     CLEAR     54  52  94 CALM      30.25S
PLYMOUTH       CLEAR     52  52 100 CALM      30.24S
TAUNTON        FOG       48  46  93 CALM      30.23S VSB 3/4
NEW BEDFORD    CLEAR     54  54 100 CALM      30.22S
$$

MAZALL-050900-
CAPE COD AND THE ISLANDS

CITY           SKY/WX    TMP DP  RH WIND       PRES   REMARKS
FALMOUTH       CLEAR     55  54  94 NE5       30.22S
HYANNIS        CLEAR     53  50  89 CALM      30.21S
CHATHAM        CLEAR     62  54  74 NE5       30.23S
PROVINCETOWN     N/A     52  43  71 NE5       30.23S
NANTUCKET        N/A    N/A N/A N/A MISG        N/A
MARTHAS VNYRD  CLEAR     50  48  93 CALM      30.21S
$$

MAZALL-050900-
CENTRAL AND WESTERN MASSACHUSETTS

CITY           SKY/WX    TMP DP  RH WIND       PRES   REMARKS
WORCESTER      CLEAR     57  46  66 N3        30.26S
FITCHBURG      CLEAR     50  48  93 N3        30.27S
ORANGE         CLEAR     50  49  96 CALM      30.27S
SPRINGFIELD    CLEAR     53  51  96 NE3       30.24S
WESTFIELD      CLEAR     55  53  93 CALM      30.25S
NORTH ADAMS    CLEAR     58  54  86 E6        30.26R
PITTSFIELD     CLEAR     54  53  97 CALM      30.25S
$$

RIZALL-050900-
RHODE ISLAND

CITY           SKY/WX    TMP DP  RH WIND       PRES   REMARKS
PROVIDENCE     CLEAR     58  56  93 N5        30.24F
NEWPORT        CLEAR     59  57  93 N5        30.22F
BLOCK ISLAND   MOCLDY    64  61  88 NE8       30.22S
SMITHFIELD     CLOUDY    54  54 100 N3        30.24S VSB 3/4
WESTERLY       CLEAR     59  57  93 CALM      30.23F
$$

CTZALL-050900-
CONNECTICUT

CITY           SKY/WX    TMP DP  RH WIND       PRES   REMARKS
BRADLEY INTL   CLEAR     57  55  93 CALM      30.24F
HARTFORD       CLEAR     60  56  86 CALM      30.24F
BRIDGEPORT     CLEAR     66  57  72 NE8       30.22F
DANBURY        CLEAR     61  55  81 CALM      30.25F
GROTON         CLEAR     59  58  96 N6        30.22F
NEW HAVEN      CLEAR     61  56  83 N6        30.23F
CHESTER        NOT AVBL
MERIDEN        CLEAR     59  55  87 CALM      30.23F
WILLIMANTIC    PTCLDY    56  53  90 NE3       30.25S
OXFORD         CLEAR     57  48  72 CALM      30.26S
$$

MEZ002-015-021-024-NHZ003-005-008-011-012-014-VTZ005-008-050900-
NORTHERN NEW ENGLAND

CITY           SKY/WX    TMP DP  RH WIND       PRES   REMARKS
PORTLAND ME    CLEAR     52  50  93 CALM      30.26R
BANGOR ME      PTCLDY    49  48  97 CALM      30.26S
CONCORD NH     PTCLDY    49  47  93 CALM      30.27R
MANCHESTER NH  CLEAR     55  49  80 N3        30.24F
NASHUA NH      CLEAR     50  48  93 NW3       30.27S
PORTSMOUTH NH  CLEAR     53  51  93 N5        30.25R
JAFFREY NH     CLEAR     49  47  93 CALM      30.28R
KEENE NH       CLEAR     50  45  81 CALM      30.28R
BURLINGTON VT  CLEAR     59  55  87 CALM      30.22S
MT. WASHINGTON PTCLDY    50  21  32 NE10        N/A
$$

NYZ052-076-050900-
EASTERN NEW YORK

CITY           SKY/WX    TMP DP  RH WIND       PRES   REMARKS
ALBANY         PTCLDY    64  55  72 CALM      30.23R
NEW YORK CITY  PTCLDY    68  60  75 E8        30.22S
$$

ANZALL-050900-
MARINE OBSERVATIONS

STATION/POSITION TIME  TEMP    WIND        PRES    VSBY  WAVE
                       AIR SEA DIR/SP/G                  HT/PER
                 (UTC) (F)     (DEG/KT/KT) (MB)    (MI)  (FT/S)
BOSTON BUOY      0750   65 68   40/  6/  8 1024.0F         3/ 6
BUZZARDS BAY     0700           50/ 14/ 15 1023.9F
NANTUCKET SOUND  0750   66 74   50/ 12/ 16 1022.6F         1/ 6
MASS BAY-STELLWA 0704   64 67   10/  6/  8   N/A    1 7/8  3/ 5
ISLE OF SHOALS   0800   60     330/  7/  7 1024.2R
S OF BLOCK IS    0708      72                N/A           4/ 5
$$

......................KEY.........................
  SKY/WX - SKY CONDITION/PRESENT WEATHER
  TMP    - TEMPERATURE IN FAHRENHEIT
  DWPT   - DEWPOINT IN FAHRENHEIT
  RH     - RELATIVE HUMIDITY IN PERCENT
  WIND   - DIRECTION AND SPEED IN MPH
  PRES   - MEAN SEA LEVEL PRESSURE IN INCHES OF HG
  WCI    - WIND CHILL INDEX
  VSB    - VISIBILITY IN MILES
  HX     - HEAT INDEX
  TC     - TEMPERATURE IN CELSIUS
  VRB    - VARIABLE WIND DIRECTION
  N/A    - NOT AVAILABLE



USA.gov is the U.S. government's official web portal to all federal, state and local government web resources and services.